Elmira, NY

1:06 PM EDT on July 20, 2017 (GMT -0400)
Elmira-Corning Regional

Weather History for KELM - August, 2014

Change the Weather History Date:

Thursday, August 28, 2014

  Actual Average Record
Temperature  
Mean Temperature 62 °F -  
Max Temperature 72 °F 81 °F 100 °F (1948)
Min Temperature 50 °F 57 °F 40 °F (1957)
Degree Days  
Heating Degree Days 3    
Growing Degree Days 12 (Base 50)    
Moisture  
Dew Point 53 °F    
Average Humidity 76    
Maximum Humidity 100    
Minimum Humidity 45    
Precipitation  
Precipitation 0.00 in - - ()
Sea Level Pressure  
Sea Level Pressure 30.04 in    
Wind  
Wind Speed 3 mph (NW)    
Max Wind Speed 13 mph    
Max Gust Speed 21 mph    
Visibility 10 miles    
Events      
Averages and records for this station are not official NWS values.
T = Trace of Precipitation, MM = Missing Value Source: NWS Daily Summary

Daily Weather History Graph

Daily Weather History Graph

Search for Another Location

Airport or City:

Trip Planner

Search our weather history database for the weather conditions in past years. The results will help you decide how hot, cold, wet, or windy it might be!

Date:

Astronomy

Aug. 28, 2014 Rise Set
Actual Time 6:28 AM EDT 7:47 PM EDT
Civil Twilight 5:59 AM EDT 8:16 PM EDT
Nautical Twilight 5:24 AM EDT 8:51 PM EDT
Astronomical Twilight 4:47 AM EDT 9:28 PM EDT
Moon 9:22 AM EDT (8/28) 9:06 PM EDT (8/28)
Length of Visible Light 14h 17m
Length of Day
13h 19m
Waxing Crescent, 8% of the Moon is Illuminated
Aug 28
Waxing Crescent
Sep 2
First Quarter
Sep 8
Full
Sep 15
Last Quarter
Sep 24
New

Hourly Weather History & Observations

Time (EDT) Temp. Dew Point Humidity Pressure Visibility Wind Dir Wind Speed Gust Speed Precip Events Conditions
12:53 AM 61.0 °F 57.9 °F 90% 30.01 in 10.0 mi Calm Calm - N/A   Mostly Cloudy
1:53 AM 59.0 °F 57.0 °F 93% 30.01 in 10.0 mi Calm Calm - N/A   Clear
2:19 AM 57.2 °F 57.2 °F 100% 30.01 in 10.0 mi Calm Calm - N/A   Mostly Cloudy
2:44 AM 57.2 °F 55.4 °F 94% 30.01 in 10.0 mi Calm Calm - N/A   Scattered Clouds
2:53 AM 57.0 °F 55.9 °F 96% 29.99 in 10.0 mi Calm Calm - N/A   Scattered Clouds
3:28 AM 60.8 °F 57.2 °F 88% 30.00 in 10.0 mi SSW 3.5 mph - N/A   Overcast
3:53 AM 60.1 °F 57.0 °F 90% 29.99 in 10.0 mi Calm Calm - N/A   Overcast
4:53 AM 61.0 °F 55.0 °F 81% 29.99 in 10.0 mi Calm Calm - N/A   Overcast
5:05 AM 60.8 °F 55.4 °F 82% 30.00 in 10.0 mi West 3.5 mph - N/A   Mostly Cloudy
5:53 AM 60.1 °F 55.0 °F 83% 30.00 in 10.0 mi Calm Calm - N/A   Mostly Cloudy
6:16 AM 60.8 °F 53.6 °F 77% 30.02 in 10.0 mi NNW 3.5 mph - N/A   Mostly Cloudy
6:39 AM 59.0 °F 53.6 °F 82% 30.02 in 10.0 mi Calm Calm - N/A   Mostly Cloudy
6:53 AM 59.0 °F 53.1 °F 81% 30.01 in 10.0 mi Calm Calm - N/A   Mostly Cloudy
7:53 AM 60.1 °F 55.0 °F 83% 30.03 in 10.0 mi Calm Calm - N/A   Overcast
8:53 AM 63.0 °F 54.0 °F 72% 30.03 in 10.0 mi West 6.9 mph - N/A   Overcast
9:05 AM 62.6 °F 53.6 °F 72% 30.04 in 10.0 mi West 5.8 mph - N/A   Overcast
9:22 AM 62.6 °F 55.4 °F 77% 30.04 in 10.0 mi West 6.9 mph - N/A   Overcast
9:53 AM 64.0 °F 54.0 °F 70% 30.04 in 10.0 mi NNW 10.4 mph - N/A   Overcast
11:53 AM 69.1 °F 51.1 °F 53% 30.04 in 10.0 mi North 9.2 mph 16.1 mph N/A   Mostly Cloudy
12:53 PM 70.0 °F 52.0 °F 53% 30.03 in 10.0 mi North 10.4 mph 17.3 mph N/A   Scattered Clouds
1:53 PM 70.0 °F 52.0 °F 53% 30.02 in 10.0 mi WNW 8.1 mph 20.7 mph N/A   Scattered Clouds
2:53 PM 70.0 °F 50.0 °F 49% 30.02 in 10.0 mi NNW 12.7 mph 20.7 mph N/A   Scattered Clouds
3:53 PM 71.1 °F 48.9 °F 45% 30.03 in 10.0 mi NNW 10.4 mph 19.6 mph N/A   Scattered Clouds
4:53 PM 70.0 °F 48.0 °F 46% 30.04 in 10.0 mi NNE 11.5 mph - N/A   Partly Cloudy
5:53 PM 69.1 °F 48.0 °F 47% 30.05 in 10.0 mi North 9.2 mph 18.4 mph N/A   Clear
6:53 PM 66.0 °F 48.9 °F 54% 30.07 in 10.0 mi North 5.8 mph - N/A   Clear
7:53 PM 57.0 °F 51.1 °F 81% 30.09 in 10.0 mi NW 4.6 mph - N/A   Clear
8:53 PM 55.0 °F 50.0 °F 83% 30.12 in 10.0 mi Calm Calm - N/A   Clear
9:53 PM 55.0 °F 50.0 °F 83% 30.13 in 10.0 mi Calm Calm - N/A   Clear
10:53 PM 53.1 °F 50.0 °F 89% 30.14 in 10.0 mi WSW 3.5 mph - N/A   Clear
11:53 PM 50.0 °F 48.9 °F 96% 30.14 in 10.0 mi WSW 4.6 mph - N/A   Clear